User: anonymous   Login
Location: Ceske Budejovice
(48.9830°N, 14.4670°E)
Time: 13:12:56
(UTC+02:00)
Language:

AO-7 - Orbit

View from above orbital plane
View from above orbital plane
View from above satellite
View from above satellite

Ground track
Ground track

The orbit data is extracted from the following two-line orbital elements,

1  7530U 74089B   19228.91926907 -.00000050 +00000-0 -31024-4 0  9999
2  7530 101.7487 195.9848 0011730 232.3222 192.4785 12.53639282047702
Epoch (UTC): 16 August 2019 22:03:44
Eccentricity: 0.0011730
inclination: 101.7487°
perigee height: 1440 km
apogee height: 1458 km
right ascension of ascending node: 195.9848°
argument of perigee: 232.3222°
revolutions per day: 12.53639282
mean anomaly at epoch: 192.4785°
orbit number at epoch: 4770

The dashed part of the orbit path shows where the satellite is in the earth's shadow,  

DLR